Location: Academy at Carrie F Thomas
(32.8490°N, 97.2053°W)
Time: 10:05:32
(UTC+00:00)

Meteor 1-25 Rocket - Pass Details

Date: 05 July 2022
Orbit: 835 x 892 km, 81.2° (Epoch: 14 August)

Event Time Altitude Azimuth Distance (km) Brightness Sun altitude
Exits shadow 08:31:37 36° 129° (SE) 1,380 5.2 -27.6°
Maximum altitude 08:33:08 43° 92° (E) 1,231 5.1 -27.5°
Drops below altitude 10° 08:38:37 10° 23° (NNE) 2,561 7.7 -26.9°
Sets 08:41:10 0° 17° (NNE) 3,500 8.6 -26.6°
